Weather History for Jonesville, VA

Change the Weather History Date:

Tuesday, January 7, 2014

  Actual Average (KLOZ) Record (KLOZ)
Temperature  
Mean Temperature 6 °F 35 °F  
Max Temperature 14 °F 44 °F 68 °F (2008)
Min Temperature -2 °F 26 °F -4 °F (1970)
Degree Days  
Heating Degree Days 59 30  
Month to date heating degree days 206  
Since 1 July heating degree days 1858  
Cooling Degree Days 0 0  
Month to date cooling degree days 0  
Year to date cooling degree days 0  
Moisture  
Dew Point -5 °F    
Average Humidity 66    
Maximum Humidity 85    
Minimum Humidity 49    
Precipitation  
Precipitation 0.01 in 0.11 in 1.85 in (1998)
Month to date precipitation 0.81  
Year to date precipitation 0.81  
Sea Level Pressure  
Sea Level Pressure 30.45 in    
Wind  
Wind Speed 6 mph (WSW)    
Max Wind Speed 12 mph    
Max Gust Speed 22 mph    
Visibility 10 miles    
Events Rain , Snow    
T = Trace of Precipitation, MM = Missing Value Source: NWS Daily Summary

Daily Weather History Graph

Daily Weather History Graph

Search for Another Location

Airport:

Trip Planner

Search our weather history database for the weather conditions in past years. The results will help you decide how hot, cold, wet, or windy it might be!

Date:

Astronomy

Jan. 07, 2014 Rise Set
Actual Time 7:45 AM EST 5:32 PM EST
Civil Twilight 7:17 AM EST 6:01 PM EST
Nautical Twilight 6:45 AM EST 6:33 PM EST
Astronomical Twilight 6:13 AM EST 7:04 PM EST
Moon 11:45 AM EST (1/7) No Moon Set
Length of Visible Light 10h 44m
Length of Day
9h 47m
Waxing Crescent, 45% of the Moon is Illuminated
Jan 7
Waxing Crescent
Jan 7
First Quarter
Jan 15
Full
Jan 24
Last Quarter
Jan 30
New

Hourly Weather History & Observations

Time (EST) Temp. Windchill Dew Point Humidity Pressure Visibility Wind Dir Wind Speed Gust Speed Precip Events Conditions
12:15 AM 1.4 °F -13.5 °F -5.8 °F 72% 30.38 in 4.0 mi West 9.2 mph - N/A Snow Light Snow
12:35 AM 1.4 °F -12.5 °F -4.0 °F 78% 30.38 in 3.0 mi WNW 8.1 mph - N/A Snow Light Snow
12:55 AM -0.4 °F -17.6 °F -7.6 °F 72% 30.39 in 7.0 mi WNW 11.5 mph - 0.01 in   Mostly Cloudy
1:15 AM -0.4 °F -17.6 °F -7.6 °F 72% 30.40 in 7.0 mi West 11.5 mph - N/A   Mostly Cloudy
1:35 AM -0.4 °F -16.7 °F -7.6 °F 72% 30.40 in 8.0 mi WNW 10.4 mph 18.4 mph N/A Rain Light Freezing Rain
1:55 AM -0.4 °F -17.6 °F -9.4 °F 66% 30.41 in 10.0 mi West 11.5 mph 18.4 mph N/A   Overcast
2:15 AM -0.4 °F -16.7 °F -9.4 °F 66% 30.42 in 9.0 mi West 10.4 mph - N/A   Overcast
2:35 AM -0.4 °F -16.7 °F -11.2 °F 60% 30.43 in 9.0 mi West 10.4 mph 21.9 mph N/A   Overcast
2:55 AM -0.4 °F -15.7 °F -9.4 °F 66% 30.44 in 9.0 mi West 9.2 mph - N/A   Overcast
3:15 AM -0.4 °F -14.7 °F -9.4 °F 66% 30.44 in 9.0 mi West 8.1 mph - N/A   Overcast
3:35 AM -0.4 °F -13.4 °F -11.2 °F 60% 30.45 in 10.0 mi West 6.9 mph - N/A   Mostly Cloudy
3:55 AM -0.4 °F -12.0 °F -11.2 °F 60% 30.45 in 10.0 mi West 5.8 mph - N/A   Mostly Cloudy
4:15 AM -0.4 °F -12.0 °F -11.2 °F 60% 30.45 in 10.0 mi WSW 5.8 mph - N/A   Mostly Cloudy
4:35 AM -0.4 °F -10.4 °F -11.2 °F 60% 30.43 in 10.0 mi WSW 4.6 mph - N/A   Mostly Cloudy
4:55 AM -2.2 °F -12.5 °F -11.2 °F 66% 30.43 in 10.0 mi WSW 4.6 mph - N/A   Mostly Cloudy
5:15 AM -2.2 °F - -11.2 °F 66% 30.42 in 10.0 mi Calm Calm - N/A   Mostly Cloudy
5:35 AM -2.2 °F -10.4 °F -9.4 °F 71% 30.43 in 10.0 mi West 3.5 mph - N/A   Partly Cloudy
5:55 AM -2.2 °F - -11.2 °F 66% 30.42 in 10.0 mi Calm Calm - N/A   Partly Cloudy
6:15 AM -2.2 °F -10.4 °F -9.4 °F 71% 30.44 in 10.0 mi West 3.5 mph - N/A   Partly Cloudy
7:35 AM -2.2 °F - -9.4 °F 71% 30.48 in 10.0 mi Calm Calm - N/A   Unknown
7:55 AM -2.2 °F - -9.4 °F 71% 30.48 in 10.0 mi Calm Calm - N/A   Unknown
8:15 AM -2.2 °F - -9.4 °F 71% 30.49 in 10.0 mi Calm Calm - N/A   Clear
8:55 AM -0.4 °F -12.0 °F -9.4 °F 66% 30.52 in 10.0 mi West 5.8 mph - N/A   Clear
9:15 AM -0.4 °F -13.4 °F -9.4 °F 66% 30.52 in 10.0 mi SW 6.9 mph - N/A   Clear
9:35 AM -0.4 °F -8.3 °F -9.4 °F 66% 30.53 in 10.0 mi WSW 3.5 mph - N/A   Clear
9:55 AM 1.4 °F -13.5 °F -9.4 °F 61% 30.54 in 10.0 mi SW 9.2 mph - N/A   Clear
10:15 AM 1.4 °F -8.3 °F -9.4 °F 61% 30.54 in 10.0 mi WSW 4.6 mph - N/A   Clear
10:35 AM 3.2 °F -7.8 °F -7.6 °F 61% 30.54 in 10.0 mi WSW 5.8 mph - N/A   Clear
10:55 AM 3.2 °F -10.3 °F -7.6 °F 61% 30.54 in 10.0 mi SW 8.1 mph - N/A   Clear
11:15 AM 5.0 °F -9.1 °F -7.6 °F 56% 30.54 in 10.0 mi SSW 9.2 mph - N/A   Partly Cloudy
11:35 AM 5.0 °F -6.9 °F -7.6 °F 56% 30.52 in 10.0 mi WSW 6.9 mph - N/A   Partly Cloudy
11:55 AM 5.0 °F -4.1 °F -7.6 °F 56% 30.49 in 10.0 mi WNW 4.6 mph - N/A   Clear
12:15 PM 6.8 °F -5.9 °F -5.8 °F 56% 30.48 in 10.0 mi SW 8.1 mph - N/A   Clear
12:35 PM 6.8 °F -3.5 °F -4.0 °F 61% 30.46 in 10.0 mi SW 5.8 mph - N/A   Clear
12:55 PM 6.8 °F -2.0 °F -4.0 °F 61% 30.45 in 10.0 mi SW 4.6 mph - N/A   Clear
1:15 PM 8.6 °F 0.1 °F -4.0 °F 57% 30.44 in 10.0 mi WSW 4.6 mph - N/A   Clear
1:35 PM 8.6 °F 2.0 °F -4.0 °F 57% 30.43 in 10.0 mi NW 3.5 mph - N/A   Clear
1:55 PM 10.4 °F 0.8 °F -4.0 °F 52% 30.43 in 10.0 mi SSW 5.8 mph - N/A   Clear
2:15 PM 10.4 °F 4.0 °F -4.0 °F 52% 30.43 in 10.0 mi West 3.5 mph - N/A   Clear
2:35 PM 10.4 °F 2.2 °F -4.0 °F 52% 30.43 in 10.0 mi West 4.6 mph - N/A   Clear
2:55 PM 12.2 °F 4.3 °F -2.2 °F 53% 30.44 in 10.0 mi West 4.6 mph - N/A   Clear
3:15 PM 12.2 °F 2.9 °F -2.2 °F 53% 30.43 in 10.0 mi West 5.8 mph - N/A   Clear
3:35 PM 14.0 °F 6.5 °F -2.2 °F 49% 30.43 in 10.0 mi West 4.6 mph - N/A   Clear
3:55 PM 14.0 °F 6.5 °F -2.2 °F 49% 30.43 in 10.0 mi West 4.6 mph - N/A   Clear
4:15 PM 14.0 °F 8.2 °F -2.2 °F 49% 30.43 in 10.0 mi SW 3.5 mph - N/A   Clear
4:35 PM 14.0 °F 6.5 °F -2.2 °F 49% 30.43 in 10.0 mi WSW 4.6 mph - N/A   Clear
4:55 PM 14.0 °F 8.2 °F -2.2 °F 49% 30.43 in 10.0 mi WNW 3.5 mph - N/A   Clear
5:15 PM 12.2 °F - -2.2 °F 53% 30.41 in 10.0 mi Calm Calm - N/A   Clear
5:35 PM 12.2 °F 6.1 °F -0.4 °F 57% 30.44 in 10.0 mi West 3.5 mph - N/A   Clear
5:55 PM 10.4 °F - -0.4 °F 62% 30.44 in 10.0 mi Calm Calm - N/A   Clear
6:15 PM 10.4 °F - 1.4 °F 67% 30.44 in 10.0 mi Calm Calm - N/A   Clear
6:35 PM 10.4 °F - -0.4 °F 62% 30.43 in 10.0 mi Calm Calm - N/A   Clear
6:55 PM 8.6 °F - 1.4 °F 73% 30.44 in 10.0 mi Calm Calm - N/A   Clear
7:15 PM 8.6 °F - 1.4 °F 73% 30.44 in 10.0 mi North - - N/A   Clear
7:35 PM 6.8 °F - 1.4 °F 79% 30.45 in 10.0 mi Calm Calm - N/A   Clear
7:55 PM 6.8 °F - 1.4 °F 79% 30.45 in 10.0 mi Calm Calm - N/A   Clear
8:15 PM 6.8 °F - 1.4 °F 79% 30.45 in 10.0 mi Calm Calm - N/A   Clear
8:35 PM 6.8 °F - 1.4 °F 79% 30.45 in 10.0 mi Calm Calm - N/A   Clear
8:55 PM 6.8 °F - 1.4 °F 79% 30.46 in 10.0 mi Calm Calm - N/A   Clear
9:15 PM 5.0 °F - 1.4 °F 85% 30.45 in 10.0 mi Calm Calm - N/A   Clear
9:35 PM 5.0 °F - 1.4 °F 85% 30.46 in 10.0 mi Calm Calm - N/A   Clear
9:55 PM 5.0 °F - 1.4 °F 85% 30.46 in 10.0 mi North - - N/A   Clear
10:15 PM 5.0 °F - 1.4 °F 85% 30.46 in 10.0 mi Calm Calm - N/A   Clear
10:35 PM 5.0 °F - 1.4 °F 85% 30.46 in 10.0 mi Calm Calm - N/A   Clear
10:55 PM 5.0 °F - -0.4 °F 78% 30.47 in 10.0 mi Calm Calm - N/A   Clear
11:15 PM 5.0 °F - 1.4 °F 85% 30.47 in 10.0 mi Calm Calm - N/A   Clear
11:35 PM 3.2 °F - -0.4 °F 85% 30.47 in 10.0 mi Calm Calm - N/A   Clear
11:55 PM 5.0 °F - -0.4 °F 78% 30.47 in 10.0 mi Calm Calm - N/A   Clear